Location: Boursonne
(49.2024°N, 3.0468°E)
Time: 16:31:13
(UTC+00:00)

ERS-2 - Pass Details

Date: 03 March 2021
Orbit: 492 x 496 km, 98.6° (Epoch: 19 April)

Event Time Altitude Azimuth Distance (km) Brightness Sun altitude
Rises 18:21:16 0° 20° (NNE) 2,596 5.6 -8.5°
Reaches altitude 10° 18:23:26 10° 27° (NNE) 1,709 4.6 -8.8°
Maximum altitude 18:26:57 43° 100° (E) 706 2.4 -9.4°
Drops below altitude 10° 18:30:27 10° 174° (S) 1,695 4.7 -10.0°
Sets 18:32:35 0° 181° (S) 2,573 5.7 -10.3°
